This is the latest recevied weather packets stored in our database for station/object K7YVO. If no packets are shown the sender has not sent any weather packets the latest 10 day(s).
| Time | Temp. | Humidity | Pressure | Rain* | Wind** | Luminosity | Snow |
|---|---|---|---|---|---|---|---|
| 1777881320 | 17.78° C | 62% | 1011 hPa | 0 mm | - | 0 W/m² | - |
| 1777881018 | 17.78° C | 62% | 1011.1 hPa | 0 mm | - | 0 W/m² | - |
| 1777880414 | 17.78° C | 63% | 1011 hPa | 0 mm | - | 0 W/m² | - |
| 1777880112 | 18.33° C | 63% | 1011.1 hPa | 0 mm | - | 0 W/m² | - |
| 1777879810 | 17.78° C | 61% | 1010.9 hPa | 0 mm | - | 0 W/m² | - |
| 1777879508 | 17.78° C | 63% | 1011 hPa | 0 mm | - | 0 W/m² | - |
| 1777879204 | 17.78° C | 63% | 1010.8 hPa | 0 mm | - | 0 W/m² | - |
| 1777878901 | 18.33° C | 62% | 1010.8 hPa | 0 mm | - | 0 W/m² | - |
| 1777878598 | 18.33° C | 63% | 1011 hPa | 0 mm | - | 0 W/m² | - |
| 1777878295 | 18.33° C | 63% | 1010.9 hPa | 0 mm | - | 0 W/m² | - |
| 1777877991 | 18.33° C | 62% | 1010.7 hPa | 0 mm | - | 0 W/m² | - |
| 1777877687 | 18.33° C | 62% | 1010.8 hPa | 0 mm | - | 0 W/m² | - |
| 1777877385 | 18.33° C | 62% | 1010.9 hPa | 0 mm | - | 0 W/m² | - |
| 1777877082 | 18.89° C | 63% | 1010.8 hPa | 0 mm | - | 0 W/m² | - |
| 1777876779 | 18.89° C | 62% | 1010.7 hPa | 0 mm | - | 0 W/m² | - |
| 1777876477 | 18.89° C | 62% | 1010.6 hPa | 0 mm | - | 0 W/m² | - |
| 1777876172 | 18.89° C | 62% | 1010.8 hPa | 0 mm | - | 0 W/m² | - |
| 1777875869 | 18.89° C | 62% | 1010.7 hPa | 0 mm | - | 0 W/m² | - |
| 1777875565 | 19.44° C | 62% | 1010.5 hPa | 0 mm | - | 0 W/m² | - |
| 1777875262 | 19.44° C | 61% | 1010.8 hPa | 0 mm | - | 0 W/m² | - |
| 1777874959 | 19.44° C | 60% | 1010.6 hPa | 0 mm | - | 0 W/m² | - |
| 1777874655 | 20° C | 60% | 1010.8 hPa | 0 mm | - | 0 W/m² | - |
| 1777874352 | 20° C | 60% | 1010.8 hPa | 0 mm | - | 0 W/m² | - |
| 1777874049 | 20° C | 59% | 1010.7 hPa | 0 mm | - | 0 W/m² | - |
| 1777873748 | 20.56° C | 59% | 1010.7 hPa | 0 mm | - | 0 W/m² | - |
* Rain latest hour (hover to see other rain measurements)
** Current wind speed in m/s (hover to see current wind gust speed)